Find Starlink 31081

NORAD ID: 58632 Int'l Des: 2023-203 Owner: SPXS Country: US Constellation: starlink operational
LEOCIRCULAR

Live Position

Loading 3D Globe...

About Starlink 31081

Description loading...

Upcoming Passes

Passes for default location (London). Set your location on the main map for personalized predictions.

Altitude History

Loading altitude history...

Two-Line Element Set

1 58632U 23203Q 26133.17819649 .00000893 00000-0 41973-4 0 9992
2 58632 43.0015 66.3697 0000723 266.8793 93.1976 15.27580637134613
Epoch: May 13, 2026 • Age: 10 hours

Current Status

Altitude 484.6 km
Velocity 7.62 km/s
Sub-Earth Point -10.20°S, 165.53°E
Launch Date Dec 23, 2023
Age 2.3 years
Type internet

Technical Details

Classification Payload
Mass 730.00 kg
Dry Mass 700.00 kg
Total Mass 730.00 kg
Length 0.30 m
Diameter 4.10 m
Span 29.00 m
Shape Box + pan
Manufacturer SPXS
Bus Type Starlink V2M
Phase Status In Orbit
Owner/State SPXS/US

Most Searched